Weather History for Marion, IN

Change the Weather History Date:

Saturday, April 28, 2012

  Actual Average (KMIE) Record (KMIE)
Temperature  
Mean Temperature 44 °F 56 °F  
Max Temperature 49 °F 66 °F 84 °F (1986)
Min Temperature 40 °F 46 °F 30 °F (1992)
Degree Days  
Heating Degree Days 20 10  
Month to date heating degree days 403  
Since 1 July heating degree days 5573  
Cooling Degree Days 0 1  
Month to date cooling degree days 11  
Year to date cooling degree days 12  
Moisture  
Dew Point 32 °F    
Average Humidity 62    
Maximum Humidity 86    
Minimum Humidity 39    
Precipitation  
Precipitation 0.36 in 0.12 in 0.98 in (1975)
Month to date precipitation 3.42  
Year to date precipitation 10.91  
Sea Level Pressure  
Sea Level Pressure 30.11 in    
Wind  
Wind Speed 12 mph (East)    
Max Wind Speed 25 mph    
Max Gust Speed 32 mph    
Visibility 7 miles    
Events Rain    
T = Trace of Precipitation, MM = Missing Value Source: NWS Daily Summary

Daily Weather History Graph

Daily Weather History Graph

Search for Another Location

Airport:

Trip Planner

Search our weather history database for the weather conditions in past years. The results will help you decide how hot, cold, wet, or windy it might be!

Date:

Astronomy

Apr. 28, 2012 Rise Set
Actual Time 6:45 AM EDT 8:35 PM EDT
Civil Twilight 6:15 AM EDT 9:05 PM EDT
Nautical Twilight 5:40 AM EDT 9:41 PM EDT
Astronomical Twilight 5:01 AM EDT 10:19 PM EDT
Moon 12:23 PM EDT (4/28) 2:00 AM EDT (4/28)
Length of Visible Light 14h 49m
Length of Day
13h 50m
Waxing Crescent, 42% of the Moon is Illuminated
Apr 28
Waxing Crescent
Apr 29
First Quarter
May 5
Full
May 12
Last Quarter
May 20
New

Hourly Weather History & Observations

Time (EDT) Temp. Windchill Dew Point Humidity Pressure Visibility Wind Dir Wind Speed Gust Speed Precip Events Conditions
12:15 AM 49.3 °F - 25.0 °F 39% 30.14 in 5.0 mi East 10.4 mph - N/A   Haze
12:35 AM 48.9 °F - 25.9 °F 41% 30.15 in 10.0 mi East 6.9 mph - N/A   Mostly Cloudy
12:55 AM 48.6 °F - 26.6 °F 42% 30.14 in 10.0 mi East 6.9 mph - N/A   Scattered Clouds
1:15 AM 48.2 °F - 27.3 °F 44% 30.15 in 7.0 mi East 8.1 mph - N/A   Scattered Clouds
1:35 AM 48.2 °F - 27.5 °F 45% 30.16 in 7.0 mi East 8.1 mph - N/A   Overcast
1:55 AM 48.2 °F - 28.0 °F 46% 30.15 in 5.0 mi East 10.4 mph - N/A   Haze
2:15 AM 48.4 °F - 28.0 °F 45% 30.15 in 7.0 mi ESE 11.5 mph - N/A Rain Light Rain
2:35 AM 48.2 °F - 27.1 °F 44% 30.14 in 10.0 mi East 9.2 mph - N/A   Overcast
3:15 AM 47.7 °F - 26.6 °F 44% 30.13 in 7.0 mi East 11.5 mph 18.4 mph N/A   Mostly Cloudy
3:35 AM 47.5 °F - 26.4 °F 44% 30.12 in 10.0 mi East 16.1 mph - N/A   Mostly Cloudy
3:55 AM 47.3 °F - 26.1 °F 44% 30.10 in 7.0 mi ESE 12.7 mph 20.7 mph N/A Rain Light Rain
4:15 AM 46.9 °F - 25.9 °F 44% 30.12 in 10.0 mi East 10.4 mph 16.1 mph N/A   Overcast
4:35 AM 46.9 °F - 25.7 °F 44% 30.14 in 10.0 mi ESE 12.7 mph 17.3 mph N/A   Overcast
4:55 AM 46.0 °F 41.4 °F 27.3 °F 48% 30.14 in 10.0 mi East 9.2 mph 17.3 mph N/A   Overcast
5:15 AM 46.0 °F 41.4 °F 26.4 °F 46% 30.16 in 10.0 mi ESE 9.2 mph - N/A Rain Light Rain
5:35 AM 45.3 °F 41.1 °F 27.9 °F 51% 30.14 in 10.0 mi East 8.1 mph - N/A Rain Light Rain
5:55 AM 44.8 °F 38.3 °F 28.6 °F 53% 30.12 in 10.0 mi East 13.8 mph - N/A Rain Light Rain
6:15 AM 45.0 °F 38.5 °F 27.5 °F 50% 30.12 in 10.0 mi ESE 13.8 mph 20.7 mph N/A   Overcast
6:35 AM 45.1 °F 39.9 °F 26.2 °F 48% 30.12 in 10.0 mi ESE 10.4 mph - N/A   Overcast
6:55 AM 45.3 °F 38.7 °F 25.5 °F 46% 30.10 in 10.0 mi East 15.0 mph - N/A   Overcast
7:15 AM 45.1 °F 38.1 °F 25.7 °F 47% 30.08 in 5.0 mi ESE 16.1 mph 23.0 mph N/A   Haze
7:55 AM 45.5 °F 38.6 °F 24.6 °F 44% 30.05 in 7.0 mi ESE 16.1 mph 20.7 mph N/A   Overcast
8:35 AM 46.4 °F 37.9 °F 23.7 °F 41% 30.02 in 10.0 mi ESE 25.3 mph 31.1 mph N/A   Overcast
8:55 AM 46.6 °F - 24.1 °F 41% 30.02 in 5.0 mi ESE 20.7 mph 29.9 mph N/A   Haze
9:15 AM 45.9 °F 37.8 °F 26.6 °F 47% 29.99 in 5.0 mi ESE 21.9 mph 32.2 mph N/A Rain Light Rain
9:35 AM 44.8 °F 39.0 °F 29.5 °F 55% 30.11 in 1.0 mi NE 11.5 mph 26.5 mph 0.11 in Rain Heavy Rain
9:55 AM 41.7 °F 34.8 °F 33.4 °F 72% 30.12 in 1.8 mi East 12.7 mph - 0.27 in   Unknown
10:35 AM 40.1 °F - 35.8 °F 85% 30.12 in 7.0 mi Calm Calm - 0.07 in   Overcast
10:55 AM 40.3 °F 33.9 °F 36.0 °F 85% 30.13 in 7.0 mi ENE 10.4 mph - 0.09 in Rain Light Rain
11:15 AM 40.3 °F 31.9 °F 36.3 °F 86% 30.11 in 7.0 mi East 16.1 mph - N/A   Overcast
11:35 AM 40.6 °F 32.7 °F 36.0 °F 83% 30.11 in 7.0 mi East 15.0 mph 23.0 mph N/A   Overcast
11:55 AM 41.0 °F 33.5 °F 35.8 °F 82% 30.11 in 2.5 mi East 13.8 mph - N/A   Unknown
12:15 PM 41.4 °F 33.3 °F 35.1 °F 78% 30.10 in 4.0 mi East 16.1 mph 21.9 mph N/A   Unknown
12:35 PM 41.5 °F 32.9 °F 34.3 °F 76% 30.08 in 10.0 mi East 18.4 mph 25.3 mph N/A   Overcast
12:55 PM 41.9 °F 34.3 °F 34.0 °F 73% 30.08 in 5.0 mi East 15.0 mph 21.9 mph N/A   Haze
1:15 PM 42.4 °F 35.3 °F 33.6 °F 71% 30.09 in 10.0 mi East 13.8 mph 24.2 mph N/A   Overcast
1:35 PM 42.8 °F 34.3 °F 33.3 °F 69% 30.08 in 4.0 mi East 19.6 mph 24.2 mph N/A   Unknown
1:55 PM 43.3 °F 35.0 °F 33.6 °F 69% 30.06 in 7.0 mi East 19.6 mph 26.5 mph N/A   Overcast
2:15 PM 43.7 °F 36.9 °F 33.4 °F 67% 30.07 in 4.0 mi East 13.8 mph 23.0 mph N/A   Haze
2:35 PM 44.1 °F 36.5 °F 33.8 °F 67% 30.05 in 5.0 mi East 17.3 mph 25.3 mph N/A   Haze
2:55 PM 45.0 °F 36.9 °F 34.3 °F 66% 30.05 in 10.0 mi East 20.7 mph 25.3 mph N/A   Overcast
3:15 PM 45.5 °F 39.2 °F 34.0 °F 64% 30.07 in 3.0 mi East 13.8 mph 20.7 mph N/A   Haze
3:35 PM 46.0 °F 38.8 °F 35.1 °F 66% 30.06 in 4.0 mi East 18.4 mph 21.9 mph N/A   Haze
3:55 PM 46.0 °F 40.2 °F 35.1 °F 66% 30.06 in 3.0 mi East 12.7 mph 24.2 mph N/A   Haze
4:15 PM 46.4 °F 40.4 °F 35.4 °F 66% 30.06 in 10.0 mi East 13.8 mph - N/A   Overcast
4:35 PM 46.2 °F 40.1 °F 35.1 °F 65% 30.08 in 7.0 mi East 13.8 mph - N/A   Overcast
4:55 PM 46.4 °F 41.1 °F 35.1 °F 65% 30.06 in 4.0 mi East 11.5 mph 21.9 mph N/A   Haze
5:15 PM 46.4 °F 39.8 °F 35.1 °F 65% 30.07 in 5.0 mi East 16.1 mph 19.6 mph N/A   Haze
5:35 PM 46.4 °F 41.1 °F 35.4 °F 66% 30.10 in 10.0 mi East 11.5 mph 18.4 mph N/A   Overcast
5:55 PM 46.4 °F 40.1 °F 35.4 °F 66% 30.10 in 7.0 mi East 15.0 mph - N/A   Overcast
6:15 PM 46.0 °F 40.2 °F 35.4 °F 66% 30.06 in 5.0 mi East 12.7 mph 19.6 mph N/A   Haze
6:35 PM 46.0 °F 41.0 °F 36.0 °F 68% 30.10 in 7.0 mi East 10.4 mph 17.3 mph N/A   Overcast
6:55 PM 45.9 °F 40.8 °F 35.2 °F 66% 30.10 in 3.0 mi East 10.4 mph - N/A   Haze
7:15 PM 45.9 °F 39.7 °F 35.1 °F 66% 30.09 in 4.0 mi East 13.8 mph 18.4 mph N/A   Haze
7:35 PM 45.7 °F 40.2 °F 34.9 °F 66% 30.10 in 7.0 mi ENE 11.5 mph - N/A   Overcast
7:55 PM 45.5 °F 38.9 °F 34.7 °F 66% 30.08 in 4.0 mi East 15.0 mph 18.4 mph N/A   Haze
8:35 PM 45.1 °F 39.1 °F 34.9 °F 67% 30.11 in 10.0 mi East 12.7 mph 16.1 mph N/A   Overcast
8:55 PM 45.1 °F 38.4 °F 35.8 °F 70% 30.11 in 7.0 mi East 15.0 mph 19.6 mph N/A   Overcast
9:15 PM 45.0 °F 38.5 °F 36.5 °F 72% 30.12 in 4.0 mi East 13.8 mph 19.6 mph N/A   Haze
9:35 PM 45.0 °F 40.1 °F 37.2 °F 74% 30.12 in 7.0 mi East 9.2 mph - N/A   Overcast
9:55 PM 45.0 °F 40.6 °F 37.4 °F 75% 30.13 in 5.0 mi East 8.1 mph - N/A   Haze
10:15 PM 45.0 °F 41.2 °F 37.9 °F 76% 30.14 in 10.0 mi East 6.9 mph - N/A   Overcast
10:35 PM 44.8 °F 39.9 °F 37.9 °F 77% 30.16 in 10.0 mi East 9.2 mph - N/A   Overcast
10:55 PM 44.6 °F 40.2 °F 38.1 °F 78% 30.17 in 4.0 mi East 8.1 mph - N/A   Haze
11:15 PM 44.4 °F 38.6 °F 38.5 °F 80% 30.17 in 3.0 mi ENE 11.5 mph - N/A   Haze
11:35 PM 43.9 °F 37.2 °F 38.5 °F 81% 30.16 in 4.0 mi ENE 13.8 mph - N/A   Haze
11:55 PM 43.3 °F 36.5 °F 38.5 °F 83% 30.17 in 4.0 mi ENE 13.8 mph - N/A   Overcast